When you browse on this site, cookies collect data to enhance your experience and personalize the content and advertising you see.
Visit our Privacy Policy to learn more. By continuing to use the site, you agree to this use of cookies and data.
  • în România
  • Lista ţărilor
  • Pe 7 zile
  • Temperatura apei
  • Hartă satelitară
  • Meteo pe hartă
  • Widget-uri
  • user-avatar
    Intrare

    Meteo pe oră la Namibe

    Astăzi, 17 Iunie, Luni

    Timp Temperatura Precipitaţii Vânt Presiune Umiditate
    00:00 +23°C° 0 mm 2 m/s 762 mmHg 57%
    01:00 +23°C° 0 mm 2 m/s 762 mmHg 66%
    02:00 +21°C° 0 mm 2 m/s 762 mmHg 65%
    03:00 +21°C° 0 mm 2 m/s 761 mmHg 64%
    04:00 +21°C° 0 mm 2 m/s 761 mmHg 63%
    05:00 +21°C° 0 mm 2 m/s 761 mmHg 61%
    06:00 +21°C° 0 mm 2 m/s 762 mmHg 60%
    07:00 +21°C° 0 mm 2 m/s 762 mmHg 61%
    08:00 +25°C° 0 mm 2 m/s 762 mmHg 51%
    09:00 +27°C° 0 mm 2 m/s 762 mmHg 41%
    10:00 +30°C° 0 mm 2 m/s 762 mmHg 31%
    11:00 +31°C° 0 mm 3 m/s 761 mmHg 32%
    12:00 +32°C° 0 mm 4 m/s 761 mmHg 32%
    13:00 +33°C° 0 mm 5 m/s 760 mmHg 33%
    14:00 +30°C° 0 mm 5 m/s 760 mmHg 37%
    15:00 +29°C° 0 mm 5 m/s 759 mmHg 42%
    16:00 +28°C° 0 mm 4 m/s 759 mmHg 46%
    17:00 +27°C° 0 mm 4 m/s 759 mmHg 52%
    18:00 +25°C° 0 mm 3 m/s 760 mmHg 57%
    19:00 +24°C° 0 mm 2 m/s 760 mmHg 63%
    20:00 +23°C° 0 mm 2 m/s 760 mmHg 62%
    21:00 +22°C° 0 mm 3 m/s 761 mmHg 60%
    22:00 +22°C° 0 mm 3 m/s 761 mmHg 59%
    23:00 +22°C° 0 mm 3 m/s 761 mmHg 58%

    Mâine, 18 Iunie, Marţi

    Timp Temperatura Precipitaţii Vânt Presiune Umiditate
    00:00 +22°C° 0 mm 3 m/s 761 mmHg 57%
    01:00 +21°C° 0 mm 3 m/s 761 mmHg 56%
    02:00 +21°C° 0 mm 3 m/s 761 mmHg 56%
    03:00 +21°C° 0 mm 3 m/s 760 mmHg 56%
    04:00 +21°C° 0 mm 3 m/s 760 mmHg 56%
    05:00 +20°C° 0 mm 2 m/s 760 mmHg 57%
    06:00 +20°C° 0 mm 2 m/s 761 mmHg 58%
    07:00 +20°C° 0 mm 2 m/s 761 mmHg 59%
    08:00 +24°C° 0 mm 2 m/s 761 mmHg 50%
    09:00 +27°C° 0 mm 2 m/s 761 mmHg 40%
    10:00 +30°C° 0 mm 2 m/s 761 mmHg 31%
    11:00 +31°C° 0 mm 3 m/s 760 mmHg 31%
    12:00 +31°C° 0 mm 3 m/s 760 mmHg 32%
    13:00 +33°C° 0 mm 4 m/s 759 mmHg 32%
    14:00 +32°C° 0 mm 4 m/s 759 mmHg 35%
    15:00 +30°C° 0 mm 4 m/s 758 mmHg 39%
    16:00 +29°C° 0 mm 4 m/s 758 mmHg 42%
    17:00 +27°C° 0 mm 3 m/s 758 mmHg 48%
    18:00 +26°C° 0 mm 3 m/s 758 mmHg 54%
    19:00 +24°C° 0 mm 2 m/s 759 mmHg 60%
    20:00 +24°C° 0 mm 2 m/s 759 mmHg 58%
    21:00 +24°C° 0 mm 2 m/s 759 mmHg 55%
    22:00 +24°C° 0 mm 1 m/s 760 mmHg 53%
    23:00 +24°C° 0 mm 1 m/s 760 mmHg 50%

    Poimâine, 19 Iunie, Miercuri

    Timp Temperatura Precipitaţii Vânt Presiune Umiditate
    00:00 +24°C° 0 mm 1 m/s 760 mmHg 48%
    01:00 +24°C° 0 mm 1 m/s 760 mmHg 45%
    02:00 +24°C° 0 mm 1 m/s 759 mmHg 46%
    03:00 +24°C° 0 mm 1 m/s 759 mmHg 47%
    04:00 +23°C° 0 mm 1 m/s 759 mmHg 48%
    05:00 +23°C° 0 mm 1 m/s 760 mmHg 48%
    06:00 +23°C° 0 mm 1 m/s 760 mmHg 48%
    07:00 +23°C° 0 mm 1 m/s 760 mmHg 48%
    08:00 +26°C° 0 mm 1 m/s 760 mmHg 41%
    09:00 +28°C° 0 mm 2 m/s 761 mmHg 35%
    10:00 +31°C° 0 mm 2 m/s 761 mmHg 29%
    11:00 +31°C° 0 mm 3 m/s 760 mmHg 30%
    12:00 +31°C° 0 mm 3 m/s 760 mmHg 31%
    13:00 +33°C° 0 mm 4 m/s 759 mmHg 31%
    14:00 +30°C° 0 mm 4 m/s 759 mmHg 35%
    15:00 +29°C° 0 mm 4 m/s 759 mmHg 38%
    16:00 +28°C° 0 mm 4 m/s 758 mmHg 41%
    17:00 +27°C° 0 mm 3 m/s 759 mmHg 47%
    18:00 +25°C° 0 mm 2 m/s 759 mmHg 54%
    19:00 +24°C° 0 mm 2 m/s 760 mmHg 60%
    20:00 +24°C° 0 mm 2 m/s 760 mmHg 59%
    21:00 +24°C° 0 mm 2 m/s 761 mmHg 58%
    22:00 +24°C° 0 mm 3 m/s 761 mmHg 57%
    23:00 +24°C° 0 mm 2 m/s 761 mmHg 55%

    20 Iunie, Joi

    Timp Temperatura Precipitaţii Vânt Presiune Umiditate
    00:00 +24°C° 0 mm 2 m/s 761 mmHg 52%
    01:00 +24°C° 0 mm 2 m/s 761 mmHg 49%
    02:00 +24°C° 0 mm 2 m/s 761 mmHg 48%
    03:00 +24°C° 0 mm 2 m/s 760 mmHg 47%
    04:00 +24°C° 0 mm 2 m/s 760 mmHg 45%
    05:00 +24°C° 0 mm 2 m/s 760 mmHg 45%
    06:00 +24°C° 0 mm 2 m/s 760 mmHg 44%
    07:00 +24°C° 0 mm 2 m/s 760 mmHg 43%
    08:00 +27°C° 0 mm 2 m/s 761 mmHg 36%
    09:00 +30°C° 0 mm 2 m/s 761 mmHg 29%
    10:00 +34°C° 0 mm 2 m/s 761 mmHg 22%
    11:00 +35°C° 0 mm 3 m/s 760 mmHg 21%
    12:00 +36°C° 0 mm 3 m/s 759 mmHg 20%
    13:00 +37°C° 0 mm 3 m/s 759 mmHg 19%
    14:00 +36°C° 0 mm 3 m/s 758 mmHg 22%
    15:00 +35°C° 0 mm 3 m/s 758 mmHg 24%
    16:00 +34°C° 0 mm 4 m/s 757 mmHg 26%
    17:00 +30°C° 0 mm 3 m/s 758 mmHg 32%
    18:00 +28°C° 0 mm 3 m/s 759 mmHg 38%
    19:00 +26°C° 0 mm 3 m/s 759 mmHg 43%
    20:00 +25°C° 0 mm 2 m/s 760 mmHg 45%
    21:00 +25°C° 0 mm 2 m/s 760 mmHg 46%
    22:00 +24°C° 0 mm 1 m/s 761 mmHg 47%
    23:00 +23°C° 0 mm 1 m/s 760 mmHg 49%

    21 Iunie, Vineri

    Timp Temperatura Precipitaţii Vânt Presiune Umiditate
    00:00 +23°C° 0 mm 2 m/s 760 mmHg 52%
    01:00 +21°C° 0 mm 2 m/s 760 mmHg 54%
    02:00 +21°C° 0 mm 2 m/s 760 mmHg 53%
    03:00 +23°C° 0 mm 2 m/s 759 mmHg 52%
    04:00 +23°C° 0 mm 2 m/s 759 mmHg 51%
    05:00 +23°C° 0 mm 2 m/s 759 mmHg 45%
    06:00 +23°C° 0 mm 2 m/s 760 mmHg 40%
    07:00 +24°C° 0 mm 2 m/s 760 mmHg 35%
    08:00 +27°C° 0 mm 2 m/s 760 mmHg 30%
    09:00 +30°C° 0 mm 2 m/s 760 mmHg 25%
    10:00 +34°C° 0 mm 2 m/s 760 mmHg 20%
    11:00 +34°C° 0 mm 2 m/s 759 mmHg 21%
    12:00 +35°C° 0 mm 3 m/s 759 mmHg 21%
    13:00 +35°C° 0 mm 4 m/s 758 mmHg 21%
    14:00 +34°C° 0 mm 4 m/s 758 mmHg 25%
    15:00 +32°C° 0 mm 4 m/s 757 mmHg 30%
    16:00 +30°C° 0 mm 5 m/s 757 mmHg 34%
    17:00 +28°C° 0 mm 4 m/s 757 mmHg 42%
    18:00 +26°C° 0 mm 3 m/s 758 mmHg 50%
    19:00 +24°C° 0 mm 2 m/s 758 mmHg 58%
    20:00 +24°C° 0 mm 2 m/s 759 mmHg 59%
    21:00 +24°C° 0 mm 2 m/s 759 mmHg 60%
    22:00 +23°C° 0 mm 1 m/s 760 mmHg 60%
    23:00 +23°C° 0 mm 1 m/s 760 mmHg 61%

    22 Iunie, Sâmbătă

    Timp Temperatura Precipitaţii Vânt Presiune Umiditate
    00:00 +22°C° 0 mm 1 m/s 759 mmHg 61%
    01:00 +22°C° 0 mm 1 m/s 759 mmHg 61%
    02:00 +22°C° 0 mm 1 m/s 759 mmHg 59%
    03:00 +22°C° 0 mm 1 m/s 759 mmHg 56%
    04:00 +22°C° 0 mm 1 m/s 758 mmHg 54%
    05:00 +22°C° 0 mm 1 m/s 759 mmHg 51%
    06:00 +23°C° 0 mm 1 m/s 759 mmHg 48%
    07:00 +23°C° 0 mm 2 m/s 759 mmHg 46%
    08:00 +25°C° 0 mm 2 m/s 760 mmHg 41%
    09:00 +27°C° 0 mm 3 m/s 760 mmHg 37%
    10:00 +30°C° 0 mm 3 m/s 760 mmHg 32%
    11:00 +30°C° 0 mm 3 m/s 759 mmHg 35%
    12:00 +30°C° 0 mm 4 m/s 759 mmHg 38%
    13:00 +30°C° 0 mm 4 m/s 758 mmHg 41%
    14:00 +29°C° 0 mm 4 m/s 758 mmHg 46%
    15:00 +29°C° 0 mm 5 m/s 757 mmHg 50%
    16:00 +28°C° 0 mm 5 m/s 757 mmHg 55%
    17:00 +26°C° 0 mm 5 m/s 758 mmHg 66%
    18:00 +25°C° 0 mm 4 m/s 758 mmHg 76%
    19:00 +24°C° 0 mm 3 m/s 759 mmHg 86%
    20:00 +23°C° 0 mm 2 m/s 759 mmHg 88%
    21:00 +23°C° 0 mm 2 m/s 760 mmHg 90%
    22:00 +22°C° 0 mm 1 m/s 761 mmHg 92%
    23:00 +22°C° 0 mm 1 m/s 760 mmHg 91%
    Arată mai mult